#timestamp,LO_Frequency,Hit,StdDev 
1676289615.1,286046997.3,N
1676289616.0,286046997.3,N
1676289635.8,286046997.8,N
1676289655.6,286046995.6,N
1676289675.5,286046998.3,N
1676289695.3,286047000.7,N
1676289715.2,286046996.9,N
1676289735.9,286046998.8,N
1676289755.7,286046999.0,N
1676289775.6,286047000.4,N
1676289795.4,286047000.8,N
1676289815.2,286047000.8,N
1676289835.1,286046998.9,N
1676289836.0,286046998.9,N
1676289855.8,286047000.8,N
1676289875.7,286046998.2,N
1676289895.5,286046998.6,N
1676289915.4,286047001.0,N
1676289935.2,286046999.7,N
1676289955.0,286047000.2,N
1676289955.9,286047000.2,N
1676289975.8,286046999.3,N
1676289995.6,286046996.7,N
1676290015.5,286046998.9,N
1676290035.3,286046998.6,N
1676290055.1,286046998.8,N
1676290075.9,286046995.5,Y
1676290095.7,286046996.5,P
1676290115.5,286046996.8,N
1676290135.4,286046998.6,N
1676290155.2,286047000.9,N
1676290175.1,286046998.2,N
1676290176.0,286046998.2,N
1676290195.8,286046999.1,N
1676290215.6,286046998.4,N
1676290235.5,286046998.9,N
1676290255.3,286046998.3,N
1676290275.2,286046998.1,N
1676290295.9,286046995.0,Y
1676290315.7,286046999.3,P
1676290335.6,286046996.5,P
1676290355.4,286046998.1,N
1676290375.2,286047000.3,N
1676290395.1,286047003.9,Y
1676290396.0,286047003.9,P
1676290415.8,286047005.6,N
1676290435.7,286047001.4,N
1676290455.5,286047002.7,N
1676290475.3,286047002.2,N
1676290495.2,286047003.9,N
1676290515.0,286047003.8,N
1676290515.9,286047003.8,N
1676290535.8,286047004.3,N
1676290555.6,286047003.0,N
1676290575.4,286047004.1,N
1676290595.3,286047004.0,N
1676290615.1,286047001.3,N
1676290635.8,286047000.5,N
1676290655.7,286047002.4,N
1676290675.5,286046999.7,N
1676290695.4,286046999.9,N
1676290715.2,286047001.6,N
1676290735.0,286047000.1,N
1676290735.9,286047000.1,N
1676290755.8,286047003.7,N
1676290775.6,286047001.3,N
1676290795.4,286047001.6,N
1676290815.3,286047004.3,N
1676290835.1,286047003.5,N
1676290855.9,286047003.0,N
1676290875.7,286047004.3,N
1676290895.5,286047005.6,Y
1676290915.4,286047000.0,P
1676290935.2,286047000.5,N
1676290955.0,286047002.5,N
1676290955.9,286047002.5,N
1676290975.8,286046999.7,N
1676290995.6,286047001.5,N
1676291015.5,286047000.9,N
1676291035.3,286047000.2,N
1676291055.1,286047000.9,N
1676291075.9,286047001.1,N
1676291095.7,286046998.6,N
1676291115.6,286047001.9,N
1676291135.4,286047004.4,Y
1676291155.2,286047000.3,P
1676291175.1,286046999.2,N
1676291176.0,286046999.2,N
1676291195.8,286046996.0,Y
1676291215.7,286046997.0,P
1676291235.5,286046999.7,N
1676291255.3,286047002.1,N
1676291275.2,286047000.8,N
1676291295.0,286047002.1,N
1676291295.9,286047002.1,N
1676291315.8,286047004.4,N
1676291335.6,286047002.4,N
1676291355.4,286047001.9,N
1676291375.3,286046999.7,N
1676291395.1,286047002.8,N
1676291415.8,286046999.8,N
1676291435.7,286047000.8,N
1676291455.5,286047001.5,N
1676291475.4,286047004.4,N
1676291495.2,286047000.3,N
1676291515.0,286046998.2,N
1676291515.9,286046998.2,N
1676291535.8,286046998.3,N
1676291555.6,286046999.0,N
1676291575.5,286047000.3,N
1676291595.3,286046998.6,N
1676291615.1,286047001.1,N
1676291635.9,286046998.6,N
1676291655.7,286047000.7,N
1676291675.5,286047000.5,N
1676291695.4,286046999.8,N
1676291715.2,286047000.7,N
1676291735.1,286046999.7,N
1676291736.0,286046999.7,N
1676291755.8,286047000.2,N
1676291775.6,286047001.0,N
1676291795.5,286047000.0,N
1676291815.3,286047000.3,N
1676291835.2,286047001.8,N
1676291855.9,286047004.2,N
1676291875.7,286047002.8,N
1676291895.6,286046998.3,N
1676291915.4,286047000.9,N
1676291935.3,286047000.0,N
1676291955.1,286047000.7,N
1676291956.0,286047000.7,N
1676291975.8,286047001.2,N
1676291995.7,286047000.4,N
1676292015.5,286047000.1,N
1676292035.4,286047004.4,Y
1676292055.2,286046998.5,P
1676292075.0,286046998.1,N
1676292075.9,286046998.1,N
1676292095.8,286046999.9,N
1676292115.6,286046996.9,Y
1676292135.4,286046998.6,P
1676292155.3,286047000.9,P
1676292175.1,286047000.1,N
1676292195.9,286047001.3,N
1676292215.7,286047003.9,Y
1676292235.5,286047001.5,P
1676292255.4,286047002.1,N
1676292275.2,286046999.8,N
1676292295.1,286047000.5,N
1676292296.0,286047000.5,N
1676292315.8,286047000.5,N
1676292335.6,286047002.5,Y
1676292355.5,286046998.1,P
1676292405.3,286046998.4,E
1676292415.3,286046998.2,N
1676292435.1,286047001.1,P
1676292436.0,286047001.1,N
1676292455.8,286047002.0,N
1676292475.7,286047003.8,N
1676292495.5,286047000.0,N
1676292515.3,286047002.4,N
1676292535.2,286047000.7,N
1676292555.0,286046998.4,N
1676292555.9,286046998.4,N
1676292575.8,286046998.4,N
1676292595.6,286047000.4,N
1676292615.4,286047000.9,N
1676292635.3,286047000.1,N
1676292655.1,286047000.1,N
1676292675.8,286047002.2,N
1676292695.7,286047000.5,N
1676292715.5,286047002.7,N
1676292735.4,286047002.3,N
1676292755.2,286047002.6,N
1676292775.0,286047003.6,N
1676292775.9,286047003.6,N
1676292795.8,286047005.4,Y
1676292815.6,286047002.9,P
1676292835.4,286047002.9,P
1676292855.3,286047005.3,P
1676292875.1,286047004.0,N
1676292895.9,286047004.0,N
1676292915.7,286047004.3,Y
1676292935.5,286046998.7,P
1676292955.4,286046998.5,N
1676292975.2,286046998.8,N
1676292995.1,286046997.1,N
1676292996.0,286046997.1,N
1676293015.8,286046996.9,N
1676293035.6,286046999.2,N
1676293055.5,286047000.5,N
1676293075.3,286047000.3,N
1676293095.1,286046999.5,N
1676293145.9,286046992.3,E
1676293155.8,286046996.3,N
1676293175.7,286047001.1,P
1676293195.5,286046999.9,N
